Regional Weather Roundup
Issued by NWS Little Rock, AR

Home | Current Version | Previous Version | Graphics & Text | Print | Product List | Glossary On
Versions: 1 2 3 4 5 6 7 8 9 10 11 12 13 14 15 16 17 18 19 20 21 22 23 24 25 26 27 28 29 30 31
000
ASUS44 KLZK 240205
RWRLZK

WEATHER ROUNDUP FOR ARKANSAS
NATIONAL WEATHER SERVICE LITTLE ROCK AR
800 PM CST THU NOV 23 2017

NOTE: "FAIR" INDICATES FEW OR NO CLOUDS BELOW 12,000 FEET WITH NO
SIGNIFICANT WEATHER AND/OR OBSTRUCTIONS TO VISIBILITY.

ARZ001-003-010-029-240300-
NORTHWEST ARKANSAS

CITY           SKY/WX    TMP DP  RH WIND       PRES   REMARKS
FAYETTEVILLE   CLEAR     43  31  62 CALM      30.02S
FORT SMITH     CLEAR     45  35  68 CALM      30.02F
HARRISON       CLEAR     51  28  41 CALM      30.00S
BENTONVILLE    CLEAR     50  29  44 S3        30.02S
ROGERS         CLEAR     52  29  41 SW6       30.01S
SILOAM SPGS    CLEAR     51  28  41 S5        30.01F
HIGHFILL       CLEAR     50  29  44 SW6       30.01R
SPRINGDALE     CLEAR     50  28  43 SW3       30.03R
$$

ARZ004-005-016-240300-
NORTH CENTRAL ARKANSAS

CITY           SKY/WX    TMP DP  RH WIND       PRES   REMARKS
BATESVILLE     CLEAR     50  27  40 CALM      30.03S
FLIPPIN        CLEAR     47  31  53 CALM      30.00S
MTN HOME       CLEAR     51  27  39 SW3       29.99R
$$

ARZ040-041-240300-
WEST CENTRAL ARKANSAS

CITY           SKY/WX    TMP DP  RH WIND       PRES   REMARKS
MENA           CLEAR     48  32  53 SW3       30.06S
MOUNT IDA      CLEAR     47  31  53 CALM      30.02S
$$

ARZ009-017-025-026-028-240300-
NORTHEAST ARKANSAS

CITY           SKY/WX    TMP DP  RH WIND       PRES   REMARKS
CORNING        FAIR      45  30  57 S9        30.02F
JONESBORO      CLEAR     44  29  55 CALM      30.04S
NEWPORT        CLEAR     39  30  70 S9        30.04F
WALNUT RIDGE     N/A     39  31  72 S8        30.03S
BLYTHEVILLE    CLEAR     43  30  60 SW6       30.05S
$$

ARZ022-023-033-042-044-240300-
CENTRAL ARKANSAS

CITY           SKY/WX    TMP DP  RH WIND       PRES   REMARKS
LITTLE ROCK    CLEAR     46  29  51 CALM      30.05F
N LITTLE ROCK    N/A     49  28  43 SW5       30.07F
JACKSONVILLE   CLEAR     37  29  71 CALM      30.03F
SEARCY         CLEAR     39  32  76 CALM      30.05S
HOT SPRINGS    CLEAR     45  30  55 CALM      30.05S
RUSSELLVILLE   CLEAR     41  32  70 CALM      30.03S
CLINTON        FAIR      37  34  87 CALM      30.04R
$$

ARZ036-240300-
EAST ARKANSAS

CITY           SKY/WX    TMP DP  RH WIND       PRES   REMARKS
WEST MEMPHIS   CLEAR     37  30  75 S3        30.06R
$$

ARZ050-053-066-070-073-240300-
SOUTHWEST ARKANSAS

CITY           SKY/WX    TMP DP  RH WIND       PRES   REMARKS
ARKADELPHIA    FAIR      38  32  79 CALM      30.07F
CAMDEN         CLEAR     39  32  75 CALM      30.07F
TEXARKANA      CLEAR     48  31  51 CALM      30.07S
EL DORADO      CLEAR     40  36  86 CALM      30.08F
DE QUEEN       CLEAR     40  36  86 CALM      30.06R
$$

ARZ056-057-069-240300-
SOUTHEAST ARKANSAS

CITY           SKY/WX    TMP DP  RH WIND       PRES   REMARKS
PINE BLUFF     CLEAR     43  29  57 CALM      30.07S
STUTTGART      CLEAR     46  30  53 S6        30.06S
MONTICELLO     CLEAR     40  31  70 CALM      30.08S

$$






USA.gov is the U.S. government's official web portal to all federal, state and local government web resources and services.